Regional Weather Roundup
Issued by NWS Midland/Odessa, TX

Skip options and go directly to product.
Home | Oldest Version | Previous Version | Current Version | All | Text Only | Save Text | Print | Product List | Glossary Off

Skip product version selection by date and time.   

483
ASUS44 KMAF 010310
RWRMAF
MIDLAND AREA WEATHER ROUNDUP
NATIONAL WEATHER SERVICE MIDLAND TX
1000 PM CDT FRI JUL 31 2015

...IN SOUTHWEST TEXAS AND SOUTHEAST NEW MEXICO...

CITY           SKY/WX    TMP DP  RH WIND       PRES   REMARKS
ALPINE         CLEAR     80  52  37 E5        30.24R
ANDREWS        FAIR      87  53  31 E8        30.12R
ARTESIA        PTCLDY    88  50  27 CALM      30.12R
BIG SPRING     PTCLDY    85  61  43 NE20G28   30.11R
CARLSBAD       CLEAR     86  50  28 SE7       30.07R
DRYDEN           N/A     92  61  35 SE12      30.03R
FORT STOCKTON  PTCLDY    88  55  32 SE6       30.07R
GUAD PASS      CLEAR     76  49  38 NE15      30.27R
HOBBS          PTCLDY    86  48  26 E8        30.14R
MARFA          CLEAR     72  54  53 NE7       30.22R
MIDLAND AIRPK  MOCLDY    90  55  30 SE14G22   30.09R
MIDLAND INTL   LGT RAIN  83  63  50 S18G25    30.09R
ODESSA         CLOUDY    91  54  28 E22G31    30.10
PECOS          CLEAR     89  52  27 E6        30.04R
PRESIDIO       FAIR      93  53  25 MISG      30.01R
SEMINOLE       PTCLDY    84  62  47 E14G20    30.14R
SNYDER         CLEAR     83  66  57 E21G29    30.12R
WINK           PTCLDY    93  53  25 E8        30.05R
$$
...OTHER STATIONS IN TEXAS...

CITY           SKY/WX    TMP DP  RH WIND       PRES   REMARKS
ABILENE        CLEAR     80  68  66 E17G25    30.09R
AMARILLO       CLOUDY    76  64  66 E12       30.19S
AUSTIN         MOCLDY    88  71  57 E5        29.98R
BROWNSVILLE    CLOUDY    82  74  76 SE5       29.96R
CORPUS CHRISTI CLOUDY    78  73  84 CALM      29.96R
DALLAS FTW     CLOUDY    89  63  41 E6        30.02F
DEL RIO        PTCLDY    86  68  54 E6        29.98R
EL PASO        MOCLDY    87  56  34 SE5       30.09R
HOUSTON INT    PTCLDY    81  66  60 NE5       29.98R
LUBBOCK        CLOUDY    75  67  76 E14       30.15F
SAN ANGELO     CLEAR     88  59  37 E7        30.03R
SAN ANTONIO    MOCLDY    87  69  54 S10       30.01R
WACO           PTCLDY    83  66  56 NE6       30.02R
WICHITA FALLS  NOT AVBL
$$
...OTHER LOCATIONS IN NEW MEXICO...

CITY           SKY/WX    TMP DP  RH WIND       PRES   REMARKS
ALAMAGORDO     MOCLDY    84  54  34 CALM      30.15R
ALBUQUERQUE    CLOUDY    74  56  53 SE15      30.26S
CANNON AFB     MOCLDY    70  67  89 E3        30.23R
CLOVIS         CLOUDY    70  64  83 NE7       30.25R
HOLLOMAN AFB   CLOUDY    85  54  34 SE7       30.13R
ROSWELL        MOCLDY    84  54  35 NE12      30.13R
RUIDOSO          N/A    N/A N/A N/A MISG        N/A
SANTA FE       LGT RAIN  67  58  72 SE3       30.35R
TRUTH OR CONSE PTCLDY    80  59  48 E10       30.18R
TUCUMCARI      CLOUDY    67  64  90 S9        30.21R
$$

USA.gov is the U.S. government's official web portal to all federal, state and local government web resources and services.